This is the latest recevied weather packets stored in our database for station/object KB1RMA-4. If no packets are shown the sender has not sent any weather packets the latest 10 day(s).
| Time | Temp. | Humidity | Pressure | Rain* | Wind** | Luminosity | Snow |
|---|---|---|---|---|---|---|---|
| 1787401851 | 20° C | 74% | 1019 hPa | 0 mm | - | 54 W/m² | - |
| 1787401547 | 20° C | 73% | 1019.1 hPa | 0 mm | - | 58 W/m² | - |
| 1787401242 | 20° C | 73% | 1019.3 hPa | 0 mm | - | 90 W/m² | - |
| 1787400938 | 20° C | 74% | 1019 hPa | 0 mm | - | 112 W/m² | - |
| 1787400638 | 20° C | 74% | 1019.1 hPa | 0 mm | - | 108 W/m² | - |
| 1787400333 | 20° C | 74% | 1019 hPa | 0 mm | - | 96 W/m² | - |
| 1787400032 | 20° C | 74% | 1019 hPa | 0 mm | - | 85 W/m² | - |
| 1787399730 | 19.44° C | 74% | 1019 hPa | 0 mm | - | 89 W/m² | - |
| 1787399426 | 19.44° C | 74% | 1018.7 hPa | 0 mm | - | 85 W/m² | - |
| 1787399125 | 20° C | 74% | 1018.7 hPa | 0 mm | - | 84 W/m² | - |
| 1787398820 | 19.44° C | 74% | 1019 hPa | 0 mm | - | 79 W/m² | - |
| 1787398516 | 19.44° C | 74% | 1019.1 hPa | 0 mm | - | 69 W/m² | - |
| 1787398213 | 19.44° C | 73% | 1019 hPa | 0 mm | - | 49 W/m² | - |
| 1787397908 | 19.44° C | 73% | 1019.2 hPa | 0 mm | - | 36 W/m² | - |
| 1787397602 | 19.44° C | 73% | 1019 hPa | 0 mm | - | 28 W/m² | - |
| 1787397297 | 19.44° C | 72% | 1019 hPa | 0 mm | - | 23 W/m² | - |
| 1787396996 | 19.44° C | 72% | 1019.1 hPa | 0 mm | - | 25 W/m² | - |
| 1787396693 | 19.44° C | 72% | 1019.2 hPa | 0 mm | - | 18 W/m² | - |
| 1787396388 | 19.44° C | 71% | 1019 hPa | 0 mm | - | 15 W/m² | - |
| 1787396088 | 19.44° C | 71% | 1018.9 hPa | 0 mm | - | 12 W/m² | - |
| 1787395783 | 19.44° C | 70% | 1018.7 hPa | 0 mm | - | 9 W/m² | - |
| 1787395482 | 19.44° C | 70% | 1019 hPa | 0 mm | - | 8 W/m² | - |
| 1787395177 | 19.44° C | 69% | 1018.8 hPa | 0 mm | - | 9 W/m² | - |
| 1787394873 | 19.44° C | 69% | 1018.4 hPa | 0 mm | - | 12 W/m² | - |
| 1787394569 | 19.44° C | 68% | 1018.4 hPa | 0 mm | - | 8 W/m² | - |
* Rain latest hour (hover to see other rain measurements)
** Current wind speed in m/s (hover to see current wind gust speed)